COSMOS 2251 DEB, 35459

Orbit data source: Space-Track

COSMOS 2251 DEB, 35459 is space debris in LEO originally from a launch on Wed, 16 Jun 1993 UTC launched from the Plesetsk Missile And Space Complex (PKMTR). The debris from Iridium 33, an American commercial communications satellite, has been tracked extensively since its accidental collision with the defunct Russian satellite Cosmos 2251 in 2009. This event, occurring at high speed in low Earth orbit (LEO), generated thousands of pieces of space debris, significantly increasing the risk of further collisions. The Iridium 33 debris cloud has impacted space traffic management and orbital debris mitigation strategies, making it a subject of ongoing study in space situational awareness.

Loading next visibility...
Identifier
35459, 1993-036ALD
Orbit
LEO
Country
Flag of CISCIS
Related business
Manufacturer
Unknown
Mission
Spacecraft
Bus & Motor
Unknown
Mass
Unknown
Launch date (UTC)
1993-06-16 (33 years ago)
Launch vehicle
Unknown
Launch site
Plesetsk Missile And Space Complex (PKMTR)
Object type
Payload
Rocket body
Debris
Shape & HBR
Unknown shape, 0.1 m
Radar Cross Section
Small (<0.1 m²)

Expand to show TLE details & history
Last TLE update: 1 day ago

TLE from 1 day ago
0 COSMOS 2251 DEB
1 35459U 93036ALD 26144.55315536  .00000451  00000-0  15889-3 0  9991
2 35459  73.8715 244.5946 0016173 159.6579 200.5222 14.37735552607012
Epoch: 2026-05-24T13:16Z
TLE epoch observation values (Epoch: 2026-05-24T13:16:32.623Z)
Latitude
0.00004°
Longitude
163.30503°
Altitude
779.419 km
Speed
7.459 km/s
True Right ascension
16h 18m 22s
True Declination
0° 00' 00"
Sunlit
Object was in full shadow at epoch
Visualization orbit readout
Latitude
Unknown
Longitude
Unknown
Altitude
Unknown
Speed
Unknown
Apparent Right ascension
Unknown
Apparent Declination
Unknown
Sunlit
N/A
Visualization observer readout
Local Sidereal Time
23:15:50
Azimuth
Unknown
Elevation
Unknown
Doppler factor
Unknown
Orbital elements
Apogee altitude
775.177 km
Perigee altitude
752.076 km
Semi-major axis
7,141.763 km
Eccentricity
0.00162
Inclination
73.8715°
RAAN
244.5946°
Arg. of periapsis
159.6579°
True anomaly
200.45735°
Mean anomaly
200.5222°
Eccentric anomaly
200.48976°
Mean motion
3.59613 °/min
Orbital period
100.11 mins
BSTAR
0.00015889
Loading maneuver chart data...
Computing Atmospheric mass density...
Loading historical data...
Loading historical data...
Loading historical data...
Loading historical data...
Loading historical data...
Loading historical data...
Loading historical data...

Documentation

Showing up to 5 results
|